GW7345 Weather Reports


time (UTC)temp
F
wind
direction
speed
knots
gust
knots
rain 1hr
in
rain 24hr
in
rain mn
in
humidity
%
barometer
mb
20260505073027 59 178 2.6 7.0 0.00 0.00 0.00 70 1015.2
20260505072527 60 172 2.6 7.8 0.00 0.00 0.00 70 1015.2
20260505072027 60 190 2.6 6.1 0.00 0.00 0.00 69 1015.2
20260505071532 60 197 1.7 6.1 0.00 0.00 0.00 69 1015.1
20260505071027 60 180 3.5 7.0 0.00 0.00 0.00 68 1015.1
20260505070528 60 179 2.6 7.0 0.00 0.00 0.00 68 1015.1
20260505070024 60 184 2.6 7.0 0.00 0.00 0.00 69 1015.1
20260505065524 60 182 2.6 7.0 0.00 0.00 0.00 68 1015.1
20260505065025 60 177 3.5 7.8 0.00 0.00 0.00 68 1015.1
20260505064525 60 179 3.5 6.1 0.00 0.00 0.00 68 1015.1
20260505064025 60 180 2.6 7.8 0.00 0.00 0.00 67 1015.2
20260505063525 60 181 2.6 6.1 0.00 0.00 0.00 67 1015.2
20260505063022 61 177 3.5 7.8 0.00 0.00 0.00 67 1015.3
20260505062516 61 186 2.6 6.1 0.00 0.00 0.00 66 1015.3
20260505062016 61 182 2.6 6.1 0.00 0.00 0.00 66 1015.3
20260505061516 61 181 2.6 6.1 0.00 0.00 0.00 66 1015.3
20260505061016 61 183 2.6 4.3 0.00 0.00 0.00 66 1015.3
20260505060517 61 183 2.6 6.1 0.00 0.00 0.00 66 1015.3
20260505060016 61 178 2.6 6.1 0.00 0.00 0.00 65 1015.3
20260505055537 61 180 2.6 6.1 0.00 0.00 0.00 65 1015.3
20260505055016 61 176 3.5 7.8 0.00 0.00 0.00 65 1015.3
20260505054516 61 183 1.7 7.8 0.00 0.00 0.00 65 1015.3
20260505054017 62 180 2.6 6.1 0.00 0.00 0.00 65 1015.3
20260505053537 62 179 2.6 6.1 0.00 0.00 0.00 65 1015.3
20260505053017 62 175 3.5 6.1 0.00 0.00 0.00 64 1015.4
20260505052517 62 182 3.5 6.1 0.00 0.00 0.00 64 1015.4
20260505052037 62 184 1.7 6.1 0.00 0.00 0.00 64 1015.4
20260505051517 62 190 2.6 5.2 0.00 0.00 0.00 63 1015.5
20260505051018 62 193 2.6 6.1 0.00 0.00 0.00 64 1015.5
20260505050517 63 179 2.6 6.1 0.00 0.00 0.00 63 1015.5
20260505041518 64 178 3.5 9.6 0.00 0.00 0.00 60 1015.6
20260505041018 64 188 3.5 7.0 0.00 0.00 0.00 59 1015.6
20260505040518 64 183 2.6 7.0 0.00 0.00 0.00 59 1015.6
20260505040015 64 191 3.5 8.7 0.00 0.00 0.00 58 1015.6
20260505035515 64 183 3.5 8.7 0.00 0.00 0.00 57 1015.6
20260505035015 64 181 4.3 7.8 0.00 0.00 0.00 56 1015.5
20260505034515 64 180 3.5 7.8 0.00 0.00 0.00 56 1015.5
20260505034015 63 183 2.6 5.2 0.00 0.00 0.00 56 1015.5
20260505033516 64 190 1.7 6.1 0.00 0.00 0.00 55 1015.6
20260505033016 64 188 2.6 6.1 0.00 0.00 0.00 55 1015.6
20260505032515 64 179 1.7 3.5 0.00 0.00 0.00 54 1015.5
20260505032016 64 179 1.7 5.2 0.00 0.00 0.00 54 1015.5
20260505031536 64 186 1.7 4.3 0.00 0.00 0.00 53 1015.5
20260505031018 65 183 1.7 4.3 0.00 0.00 0.00 53 1015.5
20260505030516 65 179 1.7 5.2 0.00 0.00 0.00 52 1015.5
20260505030016 65 182 2.6 5.2 0.00 0.00 0.00 52 1015.5
20260505025516 65 181 1.7 5.2 0.00 0.00 0.00 52 1015.5
20260505025016 65 180 1.7 4.3 0.00 0.00 0.00 52 1015.5
20260505024517 65 177 2.6 5.2 0.00 0.00 0.00 51 1015.5
20260505024016 65 180 1.7 5.2 0.00 0.00 0.00 51 1015.4
20260505023516 65 182 1.7 3.5 0.00 0.00 0.00 51 1015.4
20260505023017 66 185 1.7 3.5 0.00 0.00 0.00 50 1015.4
20260505022516 66 187 2.6 4.3 0.00 0.00 0.00 50 1015.3
20260505022017 66 188 2.6 4.3 0.00 0.00 0.00 49 1015.3
20260505021517 66 182 2.6 5.2 0.00 0.00 0.00 49 1015.2
20260505021017 66 181 1.7 4.3 0.00 0.00 0.00 48 1015.2
20260505020517 67 186 1.7 4.3 0.00 0.00 0.00 48 1015.2
20260505020017 67 182 2.6 4.3 0.00 0.00 0.00 47 1015.2
20260505015517 67 190 2.6 4.3 0.00 0.00 0.00 46 1015.1
20260505015017 66 185 2.6 5.2 0.00 0.00 0.00 46 1015.0
20260505014537 66 183 1.7 4.3 0.00 0.00 0.00 45 1015.0
20260505014017 66 184 2.6 5.2 0.00 0.00 0.00 44 1015.0
20260505013517 65 183 0.9 3.5 0.00 0.00 0.00 44 1014.9
20260505013017 66 199 0.0 2.6 0.00 0.00 0.00 43 1014.8
20260505012517 66 185 0.9 2.6 0.00 0.00 0.00 42 1014.7
20260505012018 66 188 0.9 2.6 0.00 0.00 0.00 43 1014.7
20260505011517 65 186 0.9 3.5 0.00 0.00 0.00 43 1014.6
20260505011017 65 176 0.0 3.5 0.00 0.00 0.00 45 1014.6
20260505010537 66 175 0.0 1.7 0.00 0.00 0.00 44 1014.5
20260505010017 66 188 0.0 1.7 0.00 0.00 0.00 44 1014.4
20260505005518 67 180 0.0 1.7 0.00 0.00 0.00 43 1014.4
20260505005018 68 189 0.9 2.6 0.00 0.00 0.00 42 1014.4
20260505004517 68 192 0.9 2.6 0.00 0.00 0.00 41 1014.3
20260505004018 69 195 0.9 2.6 0.00 0.00 0.00 40 1014.2
20260505003538 70 206 0.9 2.6 0.00 0.00 0.00 39 1014.2
20260505003015 71 199 0.9 2.6 0.00 0.00 0.00 38 1014.1
20260505002518 71 207 0.9 2.6 0.00 0.00 0.00 37 1014.1
20260505002015 72 185 1.7 6.1 0.00 0.00 0.00 37 1014.1
20260505001515 72 186 2.6 4.3 0.00 0.00 0.00 37 1014.1
20260505001016 72 186 1.7 4.3 0.00 0.00 0.00 36 1014.2
20260505000516 73 185 2.6 4.3 0.00 0.00 0.00 36 1014.1
20260505000016 73 189 1.7 6.1 0.00 0.00 0.00 36 1014.0
20260504235535 73 183 2.6 6.1 0.00 0.00 0.00 36 1014.0
20260504235016 74 186 2.6 6.1 0.00 0.00 0.00 36 1013.9
20260504234516 74 185 3.5 7.8 0.00 0.00 0.00 36 1013.9
20260504234036 74 186 2.6 5.2 0.00 0.00 0.00 36 1013.8
20260504233516 75 191 2.6 5.2 0.00 0.00 0.00 36 1013.7
20260504233016 75 178 4.3 9.6 0.00 0.00 0.00 35 1013.7
20260504232516 75 194 2.6 8.7 0.00 0.00 0.00 36 1013.6
20260504232017 76 186 3.5 8.7 0.00 0.00 0.00 37 1013.6
20260504231516 76 187 2.6 6.1 0.00 0.00 0.00 37 1013.6
20260504231016 77 196 3.5 7.0 0.00 0.00 0.00 36 1013.6
20260504230516 77 200 2.6 6.1 0.00 0.00 0.00 35 1013.6
20260504230017 77 194 4.3 9.6 0.00 0.00 0.00 34 1013.5
20260504225517 78 196 2.6 5.2 0.00 0.00 0.00 33 1013.5
20260504225017 78 195 3.5 7.0 0.00 0.00 0.00 32 1013.5
20260504224518 79 189 2.6 7.8 0.00 0.00 0.00 32 1013.5
20260504224016 79 191 3.5 8.7 0.00 0.00 0.00 31 1013.5
20260504223517 79 193 2.6 6.1 0.00 0.00 0.00 32 1013.5
20260504223017 79 186 4.3 7.8 0.00 0.00 0.00 32 1013.6
20260504222517 79 179 4.3 7.8 0.00 0.00 0.00 33 1013.6
20260504222017 80 190 4.3 7.8 0.00 0.00 0.00 33 1013.6
20260504221538 80 184 3.5 7.8 0.00 0.00 0.00 33 1013.6
20260504221017 80 181 3.5 9.6 0.00 0.00 0.00 31 1013.6
20260504220517 80 187 2.6 6.1 0.00 0.00 0.00 32 1013.6
20260504220017 80 193 4.3 7.0 0.00 0.00 0.00 32 1013.6
20260504215517 80 183 4.3 8.7 0.00 0.00 0.00 31 1013.6
20260504215018 80 186 4.3 9.6 0.00 0.00 0.00 30 1013.6
20260504214518 81 193 3.5 9.6 0.00 0.00 0.00 30 1013.6
20260504214018 81 212 1.7 6.1 0.00 0.00 0.00 30 1013.6
20260504213518 80 191 2.6 6.1 0.00 0.00 0.00 30 1013.6
20260504213018 80 184 3.5 7.8 0.00 0.00 0.00 30 1013.7
20260504212537 80 182 4.3 10.4 0.00 0.00 0.00 30 1013.7
20260504212018 80 191 4.3 7.0 0.00 0.00 0.00 29 1013.6
20260504211537 80 185 4.3 8.7 0.00 0.00 0.00 30 1013.6
20260504211035 80 182 4.3 8.7 0.00 0.00 0.00 30 1013.6
20260504210515 80 185 4.3 9.6 0.00 0.00 0.00 30 1013.7
20260504210020 80 185 3.5 8.7 0.00 0.00 0.00 29 1013.7
20260504205515 80 194 3.5 9.6 0.00 0.00 0.00 29 1013.7
20260504205016 80 189 3.5 7.8 0.00 0.00 0.00 31 1013.8
20260504204516 80 192 3.5 9.6 0.00 0.00 0.00 32 1013.8
20260504204016 80 187 3.5 8.7 0.00 0.00 0.00 32 1014.0
20260504203516 80 209 2.6 6.1 0.00 0.00 0.00 32 1014.0
20260504203016 80 195 2.6 7.8 0.00 0.00 0.00 31 1014.1
20260504202517 80 194 3.5 7.0 0.00 0.00 0.00 31 1014.2
20260504202016 80 193 3.5 10.4 0.00 0.00 0.00 31 1014.2
20260504201516 81 192 2.6 7.8 0.00 0.00 0.00 32 1014.2
20260504201016 80 195 2.6 5.2 0.00 0.00 0.00 33 1014.2
20260504200516 80 188 3.5 8.7 0.00 0.00 0.00 31 1014.3
20260504200016 80 235 1.7 3.5 0.00 0.00 0.00 31 1014.3
20260504195516 79 194 3.5 7.8 0.00 0.00 0.00 31 1014.3
20260504195016 79 240 3.5 8.7 0.00 0.00 0.00 30 1014.3
20260504194516 79 205 3.5 7.0 0.00 0.00 0.00 30 1014.4
20260504194018 79 196 3.5 7.0 0.00 0.00 0.00 31 1014.4
20260504193517 79 186 2.6 7.8 0.00 0.00 0.00 32 1014.5
20260504193017 79 191 2.6 7.0 0.00 0.00 0.00 32 1014.5
20260504192516 78 277 1.7 7.8 0.00 0.00 0.00 32 1014.6
20260504192017 78 198 3.5 7.0 0.00 0.00 0.00 34 1014.7
20260504191517 78 196 3.5 10.4 0.00 0.00 0.00 34 1014.8
20260504191017 78 199 2.6 7.8 0.00 0.00 0.00 34 1014.9
20260504190519 78 201 2.6 6.1 0.00 0.00 0.00 34 1015.0
20260504190017 78 193 3.5 7.8 0.00 0.00 0.00 33 1015.0
20260504185517 79 189 2.6 9.6 0.00 0.00 0.00 33 1015.1
20260504185017 79 242 1.7 5.2 0.00 0.00 0.00 34 1015.1
20260504184517 78 187 1.7 6.1 0.00 0.00 0.00 35 1015.2
20260504184017 78 196 2.6 7.0 0.00 0.00 0.00 34 1015.3
20260504183518 78 275 2.6 4.3 0.00 0.00 0.00 34 1015.3
20260504183037 78 214 1.7 6.1 0.00 0.00 0.00 33 1015.3
20260504182518 78 227 1.7 7.0 0.00 0.00 0.00 35 1015.4
20260504182018 78 184 1.7 6.1 0.00 0.00 0.00 34 1015.5
20260504181518 77 275 0.9 5.2 0.00 0.00 0.00 35 1015.6
20260504181038 77 215 2.6 7.0 0.00 0.00 0.00 34 1015.6
20260504180518 77 208 1.7 7.8 0.00 0.00 0.00 35 1015.7
20260504180015 77 234 1.7 8.7 0.00 0.00 0.00 35 1015.7
20260504175538 77 236 1.7 4.3 0.00 0.00 0.00 35 1015.7
20260504175038 76 188 1.7 5.2 0.00 0.00 0.00 35 1015.8
20260504174535 75 197 1.7 7.8 0.00 0.00 0.00 35 1015.8
20260504174015 75 189 3.5 6.1 0.00 0.00 0.00 36 1015.9
20260504173521 75 182 3.5 7.8 0.00 0.00 0.00 36 1015.9
20260504173018 75 223 2.6 7.0 0.00 0.00 0.00 36 1015.9
20260504172516 75 185 3.5 7.0 0.00 0.00 0.00 36 1015.9
20260504172016 75 191 3.5 6.1 0.00 0.00 0.00 36 1015.9
20260504171516 75 182 1.7 7.8 0.00 0.00 0.00 37 1016.0
20260504171016 75 203 1.7 6.1 0.00 0.00 0.00 38 1016.1
20260504170516 74 246 0.9 2.6 0.00 0.00 0.00 38 1016.2
20260504151025 70 276 1.7 4.3 0.00 0.00 0.00 45 1017.3
20260504150518 69 198 0.9 3.5 0.00 0.00 0.00 47 1017.3
20260504141018 65 198 0.9 4.3 0.00 0.00 0.00 58 1017.3
20260504140518 65 176 2.6 4.3 0.00 0.00 0.00 59 1017.3
20260504130536 58 288 0.9 3.5 0.00 0.00 0.00 70 1017.3
20260504110521 48 0.0 0.0 0.00 0.00 0.00 91 1017.0
20260504100541 48 179 0.0 1.7 0.00 0.00 0.00 88 1016.9
20260504081523 45 0.0 0.0 0.00 0.00 0.00 91 1016.6
20260504081023 45 0.0 0.0 0.00 0.00 0.00 91 1016.5
20260504080523 45 0.0 0.0 0.00 0.00 0.00 90 1016.5